Volver al catálogo

COSMOS 970 DEB

ActivoLEO
NORAD 65011·DEBRIS·🇷🇺 Russia

Lanzado Dec 21, 1977 desde Baikonur Cosmodrome

Loading…

Próximos Pases (próximas 24 horas)

TLE

ActualizadoSource: Space-Track

Época: Sep 13, 2026, 20:18 UTC

1 65011U 77121DY  26256.84593998  .00000272  00000-0  33605-3 0  9998
2 65011  65.8322 196.0504 0124372  55.1218 337.7462 13.77253422643356

Sigue COSMOS 970 DEB en tiempo real con AllMySat

Download on the App Store